Location: Bijele Vode
(45.2833°N, 16.2000°E)
Time: 20:43:22
(UTC+00:00)

MOS 1 Rocket - Pass Details

Date: 18 September 2020
Orbit: 614 x 831 km, 97.4° (Epoch: 27 October)

Event Time Altitude Azimuth Distance (km) Brightness Sun altitude
Rises 17:19:14 0° 22° (NNE) 3,015 6.4 -4.2°
Reaches altitude 10° 17:21:49 10° 35° (NE) 2,065 5.5 -4.7°
Maximum altitude 17:25:37 27° 93° (E) 1,225 4.0 -5.3°
Drops below altitude 10° 17:29:17 10° 152° (SSE) 1,985 5.3 -6.0°
Sets 17:31:42 0° 165° (SSE) 2,874 6.2 -6.4°
